{"data":{"norad_id":67409,"intl_designator":"2026-005F","name":"STARLINK-36507","alt_names":[],"object_type":"PAYLOAD","status":"ACTIVE","operator":null,"country":"US","launch_date":"2026-01-12","launch_site_code":"AFETR","launch_vehicle":null,"mission":null,"orbit_class":"UNKNOWN","rcs_meters":null,"size_class":null,"mass_kg":null,"dimensions":null,"purposes":["comms"],"wikipedia_slug":null,"has_3d_model":false,"image_url":null,"decayed_at":null,"tle_current":{"epoch":"2026-05-25T01:26:49.813728Z","epoch_age_seconds":79992,"freshness":"FRESH","line1":"1 67409U 26005F   26145.06029877  .00021147  00000+0  77553-3 0  9990","line2":"2 67409  42.9992 166.9213 0001337 288.5302  71.5404 15.27590811 20375","mean_motion":15.27590811,"eccentricity":0.0001337,"inclination_deg":42.9992,"raan_deg":166.9213,"arg_perigee_deg":288.5302,"mean_anomaly_deg":71.5404,"bstar":0.00077553,"rev_number":2037,"period_min":94.266081573071,"perigee_km":482.09938795441,"apogee_km":483.93406046026,"semimajor_km":6861.1537242073,"source":"CELESTRAK","updated_at":"2026-05-25T13:38:21.553116Z"}}}